�������l�o���
Date,Time,MP-1(��Sv/h),MP-2(��Sv/h),MP-3(��Sv/h),MP-4(��Sv/h),MP-5(��Sv/h),MP-6(��Sv/h),MP-7(��Sv/h),MP-8(��Sv/h),����,����(m/s),���J
2019/08/15,00:00,0.766,1.077,0.752,1.340,0.983,0.428,0.755,0.711,��,4.7,��
2019/08/15,00:10,0.764,1.078,0.752,1.342,0.984,0.427,0.754,0.711,��,4.9,��
2019/08/15,00:20,0.763,1.075,0.753,1.342,0.984,0.429,0.755,0.714,��쓌,4.0,��
2019/08/15,00:30,0.762,1.077,0.751,1.345,0.983,0.430,0.757,0.712,��쓌,4.4,��
2019/08/15,00:40,0.764,1.077,0.751,1.341,0.982,0.430,0.754,0.711,��,4.4,��
2019/08/15,00:50,0.762,1.076,0.752,1.342,0.984,0.429,0.754,0.712,��,4.3,��
2019/08/15,01:00,0.762,1.076,0.753,1.345,0.982,0.429,0.754,0.711,��,4.3,��
2019/08/15,01:10,0.765,1.077,0.751,1.342,0.983,0.430,0.756,0.712,��,3.5,�L
2019/08/15,01:20,0.764,1.076,0.752,1.338,0.983,0.430,0.755,0.712,��쓌,3.9,��
2019/08/15,01:30,0.764,1.077,0.754,1.342,0.982,0.429,0.757,0.712,��쓌,3.5,��
2019/08/15,01:40,0.766,1.077,0.752,1.342,0.981,0.430,0.754,0.712,��쓌,4.2,��
2019/08/15,01:50,0.762,1.079,0.753,1.340,0.983,0.431,0.754,0.713,��,5.0,��
2019/08/15,02:00,0.764,1.075,0.752,1.342,0.982,0.430,0.754,0.712,��,4.3,�L
2019/08/15,02:10,0.765,1.077,0.753,1.341,0.982,0.429,0.755,0.712,��,4.1,�L
2019/08/15,02:20,0.765,1.075,0.753,1.342,0.986,0.432,0.754,0.711,��,4.3,��
2019/08/15,02:30,0.765,1.077,0.752,1.342,0.984,0.431,0.756,0.712,��,4.2,�L
2019/08/15,02:40,0.765,1.075,0.753,1.344,0.983,0.431,0.755,0.710,��쓌,5.0,��
2019/08/15,02:50,0.763,1.076,0.751,1.344,0.983,0.432,0.755,0.712,��쓌,5.6,��
2019/08/15,03:00,0.763,1.077,0.752,1.340,0.983,0.432,0.755,0.712,��쓌,5.7,��
2019/08/15,03:10,0.765,1.077,0.753,1.340,0.983,0.431,0.754,0.711,��쓌,5.6,�L
2019/08/15,03:20,0.764,1.076,0.752,1.342,0.983,0.433,0.757,0.711,��쓌,4.8,��
2019/08/15,03:30,0.764,1.077,0.751,1.342,0.986,0.431,0.755,0.712,��쓌,6.0,��
2019/08/15,03:40,0.763,1.076,0.751,1.344,0.983,0.431,0.756,0.712,��,5.5,��
2019/08/15,03:50,0.762,1.075,0.752,1.342,0.982,0.431,0.754,0.711,��,5.4,��
2019/08/15,04:00,0.766,1.074,0.752,1.342,0.985,0.432,0.755,0.711,��쓌,5.3,��
2019/08/15,04:10,0.764,1.075,0.751,1.344,0.984,0.432,0.754,0.712,��,5.7,��
2019/08/15,04:20,0.766,1.075,0.753,1.341,0.984,0.431,0.755,0.712,��,5.2,��
2019/08/15,04:30,0.762,1.073,0.753,1.341,0.983,0.429,0.753,0.713,��,4.5,��
2019/08/15,04:40,0.763,1.076,0.751,1.342,0.983,0.431,0.755,0.712,��,5.0,��
2019/08/15,04:50,0.764,1.076,0.752,1.343,0.985,0.431,0.754,0.714,��,6.0,��
2019/08/15,05:00,0.761,1.074,0.751,1.341,0.985,0.432,0.755,0.711,��,4.9,��
2019/08/15,05:10,0.763,1.077,0.752,1.342,0.984,0.430,0.755,0.713,��,5.7,��
2019/08/15,05:20,0.764,1.075,0.751,1.342,0.985,0.432,0.755,0.711,��,5.2,��
2019/08/15,05:30,0.763,1.076,0.751,1.340,0.986,0.432,0.756,0.710,��,6.6,��
2019/08/15,05:40,0.762,1.076,0.752,1.341,0.984,0.432,0.755,0.710,��,6.3,��
2019/08/15,05:50,0.764,1.075,0.753,1.341,0.981,0.431,0.756,0.711,��,6.7,��
2019/08/15,06:00,0.765,1.076,0.752,1.341,0.984,0.431,0.755,0.711,��,5.5,��
2019/08/15,06:10,0.764,1.076,0.752,1.343,0.985,0.430,0.755,0.713,��,5.0,��
2019/08/15,06:20,0.763,1.077,0.753,1.343,0.988,0.432,0.754,0.711,��,4.8,��
2019/08/15,06:30,0.764,1.076,0.752,1.342,0.984,0.432,0.755,0.712,��,4.3,��
2019/08/15,06:40,0.766,1.075,0.752,1.341,0.984,0.432,0.755,0.711,��,3.2,��
2019/08/15,06:50,0.765,1.078,0.754,1.340,0.983,0.430,0.756,0.711,��,3.4,��
2019/08/15,07:00,0.764,1.081,0.753,1.344,0.986,0.431,0.755,0.712,��,4.1,��
2019/08/15,07:10,0.766,1.079,0.754,1.343,0.984,0.431,0.755,0.715,��쓌,4.0,��
2019/08/15,07:20,0.765,1.080,0.753,1.343,0.984,0.433,0.755,0.712,��,3.1,��
2019/08/15,07:30,0.766,1.079,0.752,1.342,0.985,0.433,0.757,0.714,��쓌,3.4,��
2019/08/15,07:40,0.766,1.080,0.753,1.342,0.984,0.431,0.757,0.712,��,5.5,��
2019/08/15,07:50,0.766,1.080,0.754,1.344,0.986,0.432,0.757,0.714,��쓌,6.8,��
2019/08/15,08:00,0.766,1.080,0.754,1.343,0.986,0.432,0.758,0.712,��,7.1,��
2019/08/15,08:10,0.765,1.082,0.755,1.342,0.987,0.432,0.758,0.713,��쓌,8.1,��
2019/08/15,08:20,0.766,1.082,0.752,1.343,0.985,0.433,0.757,0.714,��쓌,7.3,��
2019/08/15,08:30,0.767,1.080,0.755,1.344,0.985,0.433,0.757,0.713,��쓌,8.0,��
2019/08/15,08:40,0.767,1.080,0.755,1.346,0.985,0.434,0.758,0.712,��쓌,7.9,��
2019/08/15,08:50,0.768,1.083,0.755,1.344,0.986,0.434,0.757,0.714,��쓌,8.3,��
2019/08/15,09:00,0.767,1.082,0.755,1.345,0.986,0.434,0.757,0.714,��쓌,9.4,��
2019/08/15,09:10,0.770,1.080,0.755,1.346,0.985,0.434,0.757,0.712,��쓌,11.0,��
2019/08/15,09:20,0.768,1.084,0.755,1.344,0.988,0.434,0.758,0.711,��쓌,10.9,��
2019/08/15,09:30,0.768,1.082,0.755,1.346,0.988,0.434,0.757,0.713,��쓌,11.0,��
2019/08/15,09:40,0.769,1.081,0.757,1.344,0.988,0.433,0.757,0.710,��쓌,10.6,��
2019/08/15,09:50,0.769,1.083,0.752,1.345,0.989,0.434,0.757,0.710,��,10.2,��
2019/08/15,10:00,0.771,1.083,0.754,1.344,0.988,0.434,0.755,0.712,��,10.3,��
2019/08/15,10:10,0.768,1.084,0.755,1.349,0.991,0.433,0.755,0.711,��쓌,11.1,��
2019/08/15,10:20,0.769,1.086,0.756,1.344,0.990,0.432,0.756,0.710,��쓌,10.9,��
2019/08/15,10:30,0.768,1.084,0.756,1.347,0.990,0.434,0.756,0.711,��쓌,10.8,��
2019/08/15,10:40,0.770,1.087,0.755,1.349,0.990,0.436,0.757,0.711,��쓌,10.2,��
2019/08/15,10:50,0.771,1.085,0.757,1.346,0.993,0.434,0.758,0.710,��쓌,10.6,��
2019/08/15,11:00,0.769,1.085,0.756,1.347,0.991,0.434,0.757,0.713,��쓌,10.2,��
2019/08/15,11:10,0.771,1.086,0.755,1.349,0.992,0.435,0.758,0.711,��쓌,10.2,��
2019/08/15,11:20,0.768,1.086,0.756,1.348,0.993,0.435,0.757,0.712,��쓌,11.0,��
2019/08/15,11:30,0.771,1.089,0.756,1.345,0.994,0.433,0.757,0.712,��쓌,11.4,��
2019/08/15,11:40,0.770,1.088,0.756,1.347,0.994,0.435,0.758,0.712,��쓌,12.4,��
2019/08/15,11:50,0.771,1.088,0.757,1.344,0.996,0.435,0.757,0.712,��쓌,13.0,��
2019/08/15,12:00,0.770,1.090,0.757,1.347,0.996,0.435,0.756,0.713,��쓌,12.8,��
2019/08/15,12:10,0.772,1.089,0.757,1.346,0.995,0.436,0.759,0.712,��쓌,11.9,��
2019/08/15,12:20,0.771,1.087,0.758,1.347,0.997,0.434,0.758,0.713,��쓌,12.5,��
2019/08/15,12:30,0.773,1.091,0.760,1.348,0.994,0.435,0.756,0.713,��쓌,13.0,��
2019/08/15,12:40,0.772,1.090,0.759,1.349,0.998,0.434,0.758,0.713,��쓌,12.4,��
2019/08/15,12:50,0.772,1.089,0.758,1.350,0.997,0.434,0.757,0.712,��쓌,10.2,��
2019/08/15,13:00,0.772,1.091,0.758,1.348,0.998,0.436,0.758,0.713,��쓌,13.3,��
2019/08/15,13:10,0.772,1.093,0.758,1.351,0.997,0.435,0.757,0.711,��쓌,12.2,��
2019/08/15,13:20,0.775,1.092,0.760,1.352,1.000,0.434,0.758,0.712,��쓌,13.0,��
2019/08/15,13:30,0.774,1.091,0.759,1.354,0.998,0.435,0.759,0.713,��쓌,13.1,��
2019/08/15,13:40,0.774,1.094,0.759,1.351,0.998,0.435,0.757,0.714,��쓌,12.1,��
2019/08/15,13:50,0.775,1.092,0.760,1.356,0.998,0.435,0.759,0.713,��쓌,12.7,��
2019/08/15,14:00,0.774,1.093,0.759,1.350,0.999,0.436,0.761,0.714,��쓌,11.4,��
2019/08/15,14:10,0.773,1.091,0.757,1.352,1.000,0.435,0.759,0.714,��쓌,11.1,��
2019/08/15,14:20,0.776,1.094,0.759,1.353,0.999,0.436,0.761,0.716,��쓌,11.6,��
2019/08/15,14:30,0.776,1.092,0.760,1.352,1.000,0.435,0.761,0.715,��쓌,10.9,��
2019/08/15,14:40,0.774,1.096,0.760,1.350,1.003,0.434,0.760,0.715,��쓌,12.8,��
2019/08/15,14:50,0.776,1.095,0.760,1.349,1.002,0.436,0.761,0.714,��쓌,13.0,��
2019/08/15,15:00,0.775,1.094,0.763,1.350,0.999,0.435,0.760,0.714,��쓌,14.1,��
2019/08/15,15:10,0.775,1.095,0.757,1.350,0.999,0.435,0.758,0.714,��쓌,12.4,��
2019/08/15,15:20,0.775,1.096,0.761,1.350,1.000,0.435,0.757,0.713,��쓌,11.8,��
2019/08/15,15:30,0.777,1.093,0.759,1.355,1.001,0.435,0.760,0.715,��쓌,11.7,��
2019/08/15,15:40,0.777,1.095,0.757,1.354,0.998,0.436,0.760,0.716,��쓌,12.7,��
2019/08/15,15:50,0.775,1.095,0.762,1.354,0.999,0.434,0.759,0.715,��쓌,11.6,��
2019/08/15,16:00,0.775,1.095,0.759,1.352,1.001,0.435,0.759,0.714,��쓌,11.1,��
2019/08/15,16:10,0.776,1.095,0.760,1.354,0.999,0.435,0.760,0.714,��쓌,10.2,��
2019/08/15,16:20,0.774,1.096,0.761,1.355,1.000,0.435,0.758,0.713,��쓌,9.7,��
2019/08/15,16:30,0.775,1.097,0.761,1.354,1.001,0.435,0.759,0.714,��쓌,10.2,��
2019/08/15,16:40,0.774,1.096,0.760,1.353,1.001,0.435,0.759,0.713,��쓌,10.5,��
2019/08/15,16:50,0.774,1.098,0.761,1.353,0.999,0.435,0.759,0.714,��쓌,10.2,��
2019/08/15,17:00,0.775,1.096,0.759,1.354,1.000,0.435,0.759,0.713,��쓌,9.3,��
2019/08/15,17:10,0.775,1.095,0.762,1.355,1.000,0.435,0.758,0.714,��쓌,9.8,��
2019/08/15,17:20,0.774,1.093,0.761,1.353,1.000,0.435,0.759,0.713,��쓌,11.3,��
2019/08/15,17:30,0.774,1.094,0.761,1.353,1.000,0.436,0.759,0.714,��쓌,12.0,��
2019/08/15,17:40,0.774,1.095,0.761,1.352,1.002,0.438,0.759,0.712,��,9.5,��
2019/08/15,17:50,0.774,1.094,0.762,1.353,1.000,0.437,0.758,0.714,��쓌,9.3,��
2019/08/15,18:00,0.774,1.097,0.763,1.351,1.001,0.437,0.759,0.713,��,9.3,��
2019/08/15,18:10,0.775,1.097,0.762,1.350,1.001,0.436,0.758,0.714,��쓌,11.3,�L
2019/08/15,18:20,0.774,1.096,0.761,1.352,1.001,0.436,0.759,0.713,��쓌,9.2,�L
2019/08/15,18:30,0.775,1.097,0.762,1.353,1.001,0.437,0.759,0.713,��쓌,10.2,��
2019/08/15,18:40,0.775,1.097,0.760,1.353,0.999,0.437,0.757,0.713,��쓌,10.6,��
2019/08/15,18:50,0.773,1.097,0.761,1.354,1.001,0.436,0.758,0.713,��쓌,11.9,��
2019/08/15,19:00,0.772,1.097,0.760,1.354,1.002,0.437,0.757,0.714,��,10.9,�L
2019/08/15,19:10,0.774,1.095,0.760,1.352,1.001,0.437,0.759,0.713,��쓌,10.5,��
2019/08/15,19:20,0.775,1.096,0.762,1.355,1.002,0.437,0.759,0.712,��쓌,13.0,��
2019/08/15,19:30,0.776,1.096,0.761,1.354,1.000,0.435,0.757,0.714,��쓌,9.4,��
2019/08/15,19:40,0.774,1.095,0.760,1.351,1.000,0.435,0.758,0.714,��쓌,11.1,��
2019/08/15,19:50,0.775,1.096,0.761,1.353,0.999,0.438,0.758,0.713,��,10.8,��
2019/08/15,20:00,0.776,1.095,0.763,1.354,1.000,0.438,0.758,0.713,��쓌,11.0,��
2019/08/15,20:10,0.775,1.094,0.761,1.353,1.001,0.436,0.758,0.713,��,10.4,�L
2019/08/15,20:20,0.774,1.093,0.762,1.351,1.002,0.437,0.759,0.713,��쓌,10.9,�L
2019/08/15,20:30,0.774,1.096,0.761,1.353,1.002,0.436,0.758,0.713,��,11.3,�L
2019/08/15,20:40,0.775,1.097,0.760,1.351,1.000,0.436,0.757,0.712,��,10.8,�L
2019/08/15,20:50,0.775,1.097,0.760,1.352,1.002,0.435,0.758,0.712,��,11.3,�L
2019/08/15,21:00,0.774,1.096,0.762,1.353,1.002,0.436,0.760,0.713,��,11.1,�L
2019/08/15,21:10,0.773,1.096,0.761,1.351,0.998,0.436,0.758,0.712,��쓌,10.6,�L
2019/08/15,21:20,0.772,1.098,0.761,1.354,1.000,0.435,0.758,0.714,��,9.6,�L
2019/08/15,21:30,0.775,1.096,0.762,1.352,1.001,0.435,0.758,0.711,��,11.0,�L
2019/08/15,21:40,0.774,1.094,0.761,1.350,1.002,0.434,0.759,0.714,��,10.5,�L
2019/08/15,21:50,0.775,1.094,0.762,1.354,0.998,0.436,0.760,0.714,��,9.3,��
2019/08/15,22:00,0.774,1.093,0.763,1.351,0.999,0.436,0.759,0.715,��,10.6,��
2019/08/15,22:10,0.770,1.095,0.762,1.352,1.000,0.435,0.759,0.714,��,11.6,�L
2019/08/15,22:20,0.773,1.095,0.761,1.353,1.000,0.434,0.758,0.715,��쓌,12.1,��
2019/08/15,22:30,0.773,1.094,0.760,1.354,0.999,0.436,0.759,0.713,��쓌,9.8,�L
2019/08/15,22:40,0.773,1.094,0.760,1.352,1.000,0.436,0.759,0.713,��,9.0,�L
2019/08/15,22:50,0.773,1.096,0.760,1.354,1.001,0.435,0.757,0.714,��,11.6,�L
2019/08/15,23:00,0.775,1.093,0.761,1.351,0.999,0.436,0.761,0.715,��,11.9,��
2019/08/15,23:10,0.773,1.095,0.762,1.350,0.999,0.433,0.760,0.714,��,11.4,�L
2019/08/15,23:20,0.774,1.095,0.761,1.353,1.001,0.436,0.760,0.715,��,9.8,�L
2019/08/15,23:30,0.773,1.094,0.763,1.353,0.997,0.435,0.761,0.715,��,10.2,�L
2019/08/15,23:40,0.773,1.096,0.762,1.354,1.000,0.435,0.760,0.714,��,9.3,��
2019/08/15,23:50,0.774,1.095,0.760,1.353,0.999,0.437,0.760,0.713,��,10.7,�L
